Location: Blanot
(47.1713°N, 4.2340°E)
Time: 10:02:13
(UTC+00:00)

Cosmos 1544 - Pass Details

Date: 14 July 2020
Orbit: 473 x 490 km, 82.5° (Epoch: 05 August)

Event Time Altitude Azimuth Distance (km) Brightness Sun altitude
Exits shadow 02:59:58 - 181° (S) 2,047 5.8 -8.9°
Reaches altitude 10° 03:00:57 10° 180° (S) 1,636 5.3 -8.8°
Maximum altitude 03:04:30 69° 97° (E) 513 3.3 -8.4°
Drops below altitude 10° 03:08:05 10° 14° (NNE) 1,651 6.8 -7.9°
Sets 03:10:12 0° 12° (NNE) 2,535 7.7 -7.7°
